Tracking 19817 objects as of 19-Aug-2019
HD Live streaming from Space Station
objects crossing your sky now

FENGYUN 1C DEB

Track FENGYUN 1C DEB now!
10-day predictions


NORAD ID: 31852
Int'l Code: 1999-025CJS
Perigee: 513.6 km
Apogee: 1,162.9 km
Inclination: 98.8 °
Period: 101.5 minutes
Semi major axis: 7209 km
RCS: 0.0137 m2 (small)
Launch date: May 10, 1999
Source: People's Republic of China (PRC)
Launch site: Taiyaun Space Center, China (TSC)

Note: This is SATELLITE DEBRIS
aabbcc
Your satellite tracking list
Your tracking list is empty




NASA's NSSDC Master Catalog

Two Line Element Set (TLE):
1 31852U 99025CJS 19216.77834670 +.00001733 +00000-0 +31303-3 0  9992
2 31852 098.7792 052.4279 0450280 144.6025 218.5943 14.18297152616637
Source of the keplerian elements: AFSPC